Location: Bois de la Silve
(44.4667°N, 6.7833°E)
Time: 22:10:58
(UTC+00:00)

Cosmos 1447 Rocket - Visible Passes

Search period start: 18 June 2021 00:00
Search period end: 28 June 2021 00:00
Orbit: 953 x 997 km, 82.9° (Epoch: 18 June)

Date Brightness Start Highest point End Pass type
(mag) Time Alt. Az. Time Alt. Az. Time Alt. Az.
18 Jun 6.7 00:01:13 10° W 00:04:41 15° WNW 00:08:09 10° NNW visible
18 Jun 5.7 20:55:20 16° SE 20:58:44 26° E 21:03:40 10° NNE visible
18 Jun 5.1 22:39:58 23° SW 22:43:42 52° WNW 22:49:44 10° N visible
19 Jun 4.9 21:20:07 23° SSE 21:23:40 45° E 21:29:29 10° NNE visible
19 Jun 5.9 23:04:45 14° SW 23:09:12 30° WNW 23:14:34 10° N visible
20 Jun 6.4 20:02:28 10° E 20:04:28 12° ENE 20:06:28 10° ENE visible
20 Jun 4.4 21:44:53 25° S 21:48:45 79° E 21:54:57 10° N visible
20 Jun 6.6 23:30:49 10° WSW 23:34:51 18° WNW 23:38:54 10° NNW visible
21 Jun 5.8 20:25:00 11° SE 20:29:10 22° E 20:33:42 10° NE visible
21 Jun 4.8 22:09:36 20° SSW 22:14:00 61° W 22:20:07 10° N visible
22 Jun 5.1 20:49:41 16° SSE 20:54:03 38° E 20:59:41 10° NNE visible
22 Jun 5.7 22:34:18 12° SW 22:39:25 35° WNW 22:45:02 10° N visible
23 Jun 4.5 21:14:22 18° S 21:19:05 67° E 21:25:13 10° NNE visible
23 Jun 6.5 23:00:33 10° WSW 23:05:02 21° WNW 23:09:32 10° NNW visible
24 Jun 6.0 19:55:35 10° ESE 19:59:38 18° E 20:03:39 10° NE visible
24 Jun 4.7 21:39:00 15° SSW 21:44:18 71° W 21:50:28 10° N visible
24 Jun 7.0 23:28:50 10° W 23:30:52 12° WNW 23:32:52 10° NW visible
25 Jun 5.3 20:19:04 10° SSE 20:24:28 32° E 20:29:50 10° NNE visible
25 Jun 5.5 22:03:54 10° SW 22:09:41 41° WNW 22:15:28 10° N visible
26 Jun 4.6 20:43:33 11° S 20:49:27 57° E 20:55:28 10° NNE visible
26 Jun 6.4 22:30:22 10° WSW 22:35:14 24° WNW 22:40:07 10° NNW visible
27 Jun 4.5 21:08:25 10° S 21:14:37 83° W 21:20:48 10° N visible
27 Jun 6.9 22:58:00 10° W 23:01:00 14° WNW 23:03:59 10° NNW visible
